Location: *
(46.1833°N, 22.7667°E)
Time: 09:31:41
(UTC+00:00)

Cosmos 1743 - Pass Details

Date: 17 September 2019
Orbit: 511 x 527 km, 82.6° (Epoch: 18 October)

Event Time Altitude Azimuth Distance (km) Brightness Sun altitude
Rises 17:22:06 0° 205° (SSW) 2,627 6.5 -8.5°
Reaches altitude 10° 17:24:19 10° 213° (SSW) 1,748 5.7 -8.9°
Maximum altitude 17:27:56 40° 284° (WNW) 785 4.3 -9.5°
Drops below altitude 10° 17:31:37 10° 355° (N) 1,771 5.7 -10.1°
Sets 17:33:52 0° 3° (N) 2,668 6.5 -10.5°
